Weather History for Ostend, Belgium

Change the Weather History Date:

Friday, February 8, 2013

  Actual Average Record
Temperature  
Mean Temperature 36 °F -  
Max Temperature 40 °F 45 °F 53 °F (2000)
Min Temperature 33 °F 35 °F 23 °F (2012)
Degree Days  
Heating Degree Days 28    
Moisture  
Dew Point 30 °F    
Average Humidity 77    
Maximum Humidity 93    
Minimum Humidity 50    
Precipitation  
Precipitation 0.04 in - - ()
Sea Level Pressure  
Sea Level Pressure 30.03 in    
Wind  
Wind Speed 9 mph ()    
Max Wind Speed 17 mph    
Max Gust Speed 29 mph    
Visibility 7.3 miles    
Events Rain , Snow    
Averages and records for this station are not official NWS values.
T = Trace of Precipitation, MM = Missing Value Source: Averaged Metar Reports

Daily Weather History Graph

Daily Weather History Graph

Search for Another Location

Airport:

Trip Planner

Search our weather history database for the weather conditions in past years. The results will help you decide how hot, cold, wet, or windy it might be!

Date:

Astronomy

Feb. 08, 2013 Rise Set
Actual Time 8:14 AM CET 5:51 PM CET
Civil Twilight 7:39 AM CET 6:26 PM CET
Nautical Twilight 7:00 AM CET 7:06 PM CET
Astronomical Twilight 6:21 AM CET 7:44 PM CET
Moon 6:38 AM CET (2/8) 4:02 PM CET (2/8)
Length of Visible Light 10h 47m
Length of Day
9h 37m
Waning Crescent, 5% of the Moon is Illuminated
Feb 8
Waning Crescent
Feb 10
New
Feb 17
First Quarter
Feb 25
Full
Mar 4
Last Quarter

Hourly Weather History & Observations

Time (CET) Temp. Windchill Dew Point Humidity Pressure Visibility Wind Dir Wind Speed Gust Speed Precip Events Conditions
12:20 AM 37.4 °F 29.8 °F 30.2 °F 75% 29.95 in 6.2 mi NNW 11.5 mph - N/A   Scattered Clouds
12:50 AM 37.4 °F 29.8 °F 30.2 °F 75% 29.95 in 6.2 mi NW 11.5 mph - N/A   Scattered Clouds
1:00 AM 38 °F - 31 °F 66% 29.97 in 17 mi NW 11.2 mph - -   Mostly Cloudy
1:20 AM 37.4 °F 29.8 °F 32.0 °F 81% 29.95 in 6.2 mi NW 11.5 mph - N/A   Scattered Clouds
1:50 AM 37.4 °F 29.3 °F 30.2 °F 75% 29.95 in 6.2 mi NW 12.7 mph - N/A   Scattered Clouds
2:20 AM 37.4 °F 29.3 °F 32.0 °F 81% 29.95 in 6.2 mi NW 12.7 mph - N/A   Scattered Clouds
2:50 AM 37.4 °F 29.3 °F 30.2 °F 75% 29.95 in 6.2 mi NNW 12.7 mph - N/A   Scattered Clouds
3:20 AM 37.4 °F 29.3 °F 30.2 °F 75% 29.95 in 6.2 mi NW 12.7 mph - N/A   Scattered Clouds
3:50 AM 37.4 °F 29.3 °F 32.0 °F 81% 29.95 in 6.2 mi NW 12.7 mph - N/A   Scattered Clouds
4:00 AM 38 °F - 31 °F 68% 29.96 in 17 mi NW 13.4 mph - -   Mostly Cloudy
4:20 AM 37.4 °F 29.3 °F 30.2 °F 75% 29.95 in 6.2 mi NW 12.7 mph - N/A   Scattered Clouds
4:50 AM 35.6 °F 25.5 °F 32.0 °F 87% 29.95 in 6.2 mi NNW 17.3 mph 28.8 mph N/A Rain Light Rain Showers
5:20 AM 35.6 °F 26.2 °F 32.0 °F 87% 29.95 in 6.2 mi WNW 15.0 mph - N/A Rain , Snow Light Rain Showers
5:50 AM 35.6 °F 27.1 °F 32.0 °F 87% 29.95 in 6.2 mi North 12.7 mph - N/A Rain , Snow Light Rain Showers
6:20 AM 33.8 °F 24.8 °F 32.0 °F 93% 29.98 in 2.5 mi North 12.7 mph - N/A Rain , Snow Light Rain Showers
6:50 AM 35.6 °F 28.6 °F 30.2 °F 81% 29.98 in 6.2 mi North 9.2 mph - N/A   Mostly Cloudy
7:00 AM 35 °F - 31 °F 80% 29.98 in 12 mi North 8.9 mph - - Snow Light Snow Showers
7:20 AM 35.6 °F 30.7 °F 32.0 °F 87% 29.98 in 6.2 mi North 5.8 mph - N/A   Scattered Clouds
7:50 AM 35.6 °F 31.7 °F 32.0 °F 87% 29.98 in 6.2 mi North 4.6 mph - N/A   Scattered Clouds
8:20 AM 35.6 °F 27.5 °F 32.0 °F 87% 29.98 in 6.2 mi NE 11.5 mph - N/A   Partly Cloudy
8:50 AM 35.6 °F 28.6 °F 30.2 °F 81% 30.01 in 6.2 mi NE 9.2 mph - N/A   Scattered Clouds
9:20 AM 35.6 °F 28.6 °F 30.2 °F 81% 30.01 in 6.2 mi NE 9.2 mph - N/A   Partly Cloudy
9:50 AM 37.4 °F 30.3 °F 30.2 °F 75% 30.01 in 6.2 mi NE 10.4 mph - N/A   Scattered Clouds
10:00 AM 37 °F - 30 °F 68% 30.03 in 12 mi NE 11.2 mph - -   Partly Cloudy
10:20 AM 37.4 °F 30.3 °F 30.2 °F 75% 30.01 in 6.2 mi NE 10.4 mph - N/A   Partly Cloudy
10:50 AM 37.4 °F 29.8 °F 28.4 °F 70% 30.04 in 6.2 mi NE 11.5 mph - N/A   Scattered Clouds
11:20 AM 37.4 °F 30.8 °F 30.2 °F 75% 30.04 in 6.2 mi ENE 9.2 mph - N/A   Scattered Clouds
11:50 AM 37.4 °F 30.3 °F 28.4 °F 70% 30.04 in 6.2 mi ENE 10.4 mph - N/A   Scattered Clouds
12:20 PM 39.2 °F 34.2 °F 30.2 °F 70% 30.04 in 6.2 mi NE 6.9 mph - N/A   Partly Cloudy
12:50 PM 39.2 °F 35.0 °F 28.4 °F 65% 30.06 in 6.2 mi NE 5.8 mph - N/A   Scattered Clouds
1:00 PM 40 °F - 29 °F 53% 30.06 in 16 mi NE 6.7 mph - -   Mostly Cloudy
1:20 PM 39.2 °F 34.2 °F 28.4 °F 65% 30.06 in 6.2 mi NE 6.9 mph - N/A   Scattered Clouds
1:50 PM 39.2 °F 35.0 °F 26.6 °F 61% 30.06 in 6.2 mi NNE 5.8 mph - N/A   Scattered Clouds
2:20 PM 39.2 °F 35.0 °F 28.4 °F 65% 30.06 in 6.2 mi North 5.8 mph - N/A   Partly Cloudy
2:50 PM 39.2 °F 34.2 °F 24.8 °F 56% 30.06 in 6.2 mi NNE 6.9 mph - N/A   Partly Cloudy
3:20 PM 37.4 °F 32.8 °F 24.8 °F 60% 30.06 in 6.2 mi NNW 5.8 mph - N/A   Partly Cloudy
3:50 PM 39.2 °F 35.9 °F 26.6 °F 61% 30.06 in 6.2 mi NW 4.6 mph - N/A   Partly Cloudy
4:00 PM 39 °F - 27 °F 50% 30.07 in 17 mi NW 4.5 mph - -   Scattered Clouds
4:20 PM 39.2 °F 35.9 °F 26.6 °F 61% 30.06 in 6.2 mi WNW 4.6 mph - N/A   Partly Cloudy
4:50 PM 37.4 °F 32.8 °F 28.4 °F 70% 30.06 in 6.2 mi WNW 5.8 mph - N/A   Scattered Clouds
5:20 PM 37.4 °F 31.4 °F 32.0 °F 81% 30.06 in 6.2 mi WNW 8.1 mph - N/A Rain Light Rain Showers
5:50 PM 35.6 °F 29.2 °F 32.0 °F 87% 30.06 in 6.2 mi WNW 8.1 mph - N/A   Mostly Cloudy
6:20 PM 35.6 °F 30.7 °F 32.0 °F 87% 30.06 in 6.2 mi WNW 5.8 mph - N/A   Mostly Cloudy
6:50 PM 35.6 °F 30.7 °F 30.2 °F 81% 30.06 in 6.2 mi West 5.8 mph - N/A   Mostly Cloudy
7:00 PM 35 °F - 31 °F 78% 30.09 in 11 mi West 4.5 mph - -   Partly Cloudy
7:20 PM 35.6 °F 29.9 °F 30.2 °F 81% 30.09 in 6.2 mi West 6.9 mph - N/A   Mostly Cloudy
7:50 PM 35.6 °F 29.9 °F 30.2 °F 81% 30.09 in 6.2 mi West 6.9 mph - N/A   Mostly Cloudy
8:20 PM 35.6 °F 29.9 °F 32.0 °F 87% 30.09 in 6.2 mi WNW 6.9 mph - N/A   Mostly Cloudy
8:50 PM 35.6 °F 30.7 °F 32.0 °F 87% 30.09 in 6.2 mi WNW 5.8 mph - N/A   Mostly Cloudy
9:20 PM 35.6 °F 31.7 °F 32.0 °F 87% 30.09 in 6.2 mi WNW 4.6 mph - N/A   Mostly Cloudy
9:50 PM 35.6 °F 31.7 °F 32.0 °F 87% 30.09 in 6.2 mi NNW 4.6 mph - N/A   Mostly Cloudy
10:00 PM 36 °F - 31 °F 77% 30.11 in 11 mi NNW 4.5 mph - -   Mostly Cloudy
10:20 PM 35.6 °F 31.7 °F 32.0 °F 87% 30.09 in 6.2 mi NW 4.6 mph - N/A   Mostly Cloudy
10:50 PM 35.6 °F 32.8 °F 32.0 °F 87% 30.09 in 6.2 mi NW 3.5 mph - N/A   Mostly Cloudy
11:20 PM 35.6 °F 32.8 °F 32.0 °F 87% 30.09 in 5.6 mi NNW 3.5 mph - N/A Rain , Snow Light Snow Showers
11:50 PM 33.8 °F 30.8 °F 30.2 °F 87% 30.12 in 6.2 mi East 3.5 mph - N/A   Partly Cloudy